Location: Breckenridge
(39.4820°N, 106.0380°W)
Time: 09:37:10
(UTC-06:00)

Hubble Space Telescope - Pass Details

Date: 27 March 2019
Orbit: 537 x 540 km, 28.5° (Epoch: 25 April)

Event Time Altitude Azimuth Distance (km) Brightness Sun altitude
Rises 20:01:38 0° 231° (SW) 2,664 5.0 -8.2°
Reaches altitude 10° 20:04:38 10° 208° (SSW) 1,775 3.6 -8.8°
Maximum altitude 20:07:04 15° 171° (S) 1,467 2.8 -9.2°
Drops below altitude 10° 20:09:31 10° 135° (SE) 1,778 2.9 -9.7°
Enters shadow 20:09:43 - 132° (SE) 1,827 3.0 -9.7°
